Regional Weather Roundup
Issued by NWS Goodland, KS

Home | Current Version | Previous Version | Text Only | Print | Product List | Glossary Off
Versions: 1 2 3 4 5 6 7 8 9 10 11 12 13 14 15 16 17 18 19 20 21 22 23 24 25 26 27 28 29 30 31 32 33 34 35 36 37 38 39 40 41 42 43 44 45 46 47 48 49 50

000
ASUS43 KGLD 292059
RWRGLD

GOODLAND FORECAST AREA HOURLY WEATHER ROUNDUP
NATIONAL WEATHER SERVICE GOODLAND KS
300 PM MDT FRI APR 29 2016

...OFFICIAL OBSERVATIONS...

CITY           SKY/WX    TMP DP  RH WIND       PRES   REMARKS
GOODLAND KS    LGT RAIN  37  36  96 NE21G30   29.83F
HILL CITY KS   CLOUDY    44  40  85 NE26G32   29.86F
IMPERIAL NEB   LGT RAIN  40  37  89 NE15      29.92F
MCCOOK NEB     CLOUDY    43  38  82 E18       29.90S
AKRON CO       SNOW      32  31  96 NE9       29.92F VSB 1/2
BURLINGTON CO  LGT SNOW  33  31  92 N16       29.86S VSB 3/4
LIMON CO       SNOW      32  32 100 N7        29.90F VSB 1/2
$$

...UNOFFICIAL OBSERVATIONS...

CITY           SKY/WX    TMP DP  RH WIND       PRES   REMARKS
COLBY KS       CLOUDY    39  39 100 NE25G31   29.84F
GOVE KS          N/A     42  32  68 MISG        N/A
LENORA KS        N/A     42  32  68 MISG        N/A
NORTON KS      CLOUDY    43  36  75 NE21      29.89R
SHARON SPRINGS   N/A     39  38  95 NE22        N/A
KIT CARSON CO    N/A     32  29  90 MISG        N/A
YUMA CO          N/A     36  34  94 E13         N/A
$$




USA.gov is the U.S. government's official web portal to all federal, state and local government web resources and services.